Time,TemperatureF,DewpointF,PressureIn,WindDirection,WindDirectionDegrees,WindSpeedMPH,WindSpeedGustMPH,Humidity,HourlyPrecipIn,Conditions,Clouds,dailyrainin,SoftwareType,DateUTC
2013-06-29 00:00:00,60.3,56.7,30.09,South,180,0.0,0.0,88,0.00,,---,0.00,VWS V14.01,2013-06-29 07:00:00,
2013-06-29 00:02:00,60.3,57.0,30.09,South,180,0.0,0.0,89,0.00,,---,0.00,VWS V14.01,2013-06-29 07:02:00,
2013-06-29 00:07:00,60.3,57.0,30.09,South,180,0.0,0.0,89,0.00,,---,0.00,VWS V14.01,2013-06-29 07:07:00,
2013-06-29 00:10:00,60.3,57.0,30.09,South,180,0.0,0.0,89,0.00,,---,0.00,VWS V14.01,2013-06-29 07:10:00,
2013-06-29 00:12:00,60.3,57.0,30.09,South,180,0.0,0.0,89,0.00,,---,0.00,VWS V14.01,2013-06-29 07:12:00,
2013-06-29 00:17:00,60.1,57.1,30.12,South,180,0.0,0.0,90,0.00,,---,0.00,VWS V14.01,2013-06-29 07:17:00,
2013-06-29 00:20:00,60.1,57.1,30.12,South,180,0.0,0.0,90,0.00,,---,0.00,VWS V14.01,2013-06-29 07:20:00,
2013-06-29 00:22:00,60.1,57.1,30.12,South,180,0.0,0.0,90,0.00,,---,0.00,VWS V14.01,2013-06-29 07:22:00,
2013-06-29 00:27:00,60.1,57.1,30.12,South,180,0.0,0.0,90,0.00,,---,0.00,VWS V14.01,2013-06-29 07:27:00,
2013-06-29 00:30:00,60.1,57.1,30.12,South,180,0.0,0.0,90,0.00,,---,0.00,VWS V14.01,2013-06-29 07:30:00,
2013-06-29 00:32:00,59.9,57.0,30.12,South,180,0.0,0.0,90,0.00,,---,0.00,VWS V14.01,2013-06-29 07:32:00,
2013-06-29 00:38:00,60.1,57.1,30.12,South,180,0.0,0.0,90,0.00,,---,0.00,VWS V14.01,2013-06-29 07:38:00,
2013-06-29 00:40:00,60.1,57.1,30.12,South,180,0.0,0.0,90,0.00,,---,0.00,VWS V14.01,2013-06-29 07:40:00,
2013-06-29 00:43:00,59.9,57.3,30.12,South,180,0.0,0.0,91,0.00,,---,0.00,VWS V14.01,2013-06-29 07:43:00,
2013-06-29 00:48:00,59.9,57.3,30.12,South,180,0.0,0.0,91,0.00,,---,0.00,VWS V14.01,2013-06-29 07:48:00,
2013-06-29 00:50:00,59.7,57.1,30.12,South,180,0.0,0.0,91,0.00,,---,0.00,VWS V14.01,2013-06-29 07:50:00,
2013-06-29 00:53:00,59.7,57.1,30.12,South,180,0.0,0.0,91,0.00,,---,0.00,VWS V14.01,2013-06-29 07:53:00,
2013-06-29 00:58:00,59.7,57.1,30.12,South,180,0.0,0.0,91,0.00,,---,0.00,VWS V14.01,2013-06-29 07:58:00,
2013-06-29 01:00:00,59.7,57.1,30.12,South,180,0.0,0.0,91,0.00,,---,0.00,VWS V14.01,2013-06-29 08:00:00,
2013-06-29 01:03:00,59.5,56.9,30.12,South,180,0.0,0.0,91,0.00,,---,0.00,VWS V14.01,2013-06-29 08:03:00,
2013-06-29 01:08:00,59.7,57.1,30.12,South,180,0.0,0.0,91,0.00,,---,0.00,VWS V14.01,2013-06-29 08:08:00,
2013-06-29 01:10:00,59.5,56.9,30.12,South,180,0.0,0.0,91,0.00,,---,0.00,VWS V14.01,2013-06-29 08:10:00,
2013-06-29 01:13:00,59.4,56.7,30.09,South,180,0.0,0.0,91,0.00,,---,0.00,VWS V14.01,2013-06-29 08:13:00,
2013-06-29 01:18:00,59.4,56.7,30.09,SSE,158,1.6,2.2,91,0.00,,---,0.00,VWS V14.01,2013-06-29 08:18:00,
2013-06-29 01:20:00,59.4,56.7,30.09,SSE,158,0.0,2.2,91,0.00,,---,0.00,VWS V14.01,2013-06-29 08:20:00,
2013-06-29 01:23:00,59.4,56.7,30.09,SSE,158,0.0,0.0,91,0.00,,---,0.00,VWS V14.01,2013-06-29 08:23:00,
2013-06-29 01:29:00,59.4,56.7,30.09,SSE,158,0.0,0.0,91,0.00,,---,0.00,VWS V14.01,2013-06-29 08:29:00,
2013-06-29 01:30:00,59.4,56.7,30.09,SSE,158,0.0,0.0,91,0.00,,---,0.00,VWS V14.01,2013-06-29 08:30:00,
2013-06-29 01:34:00,59.4,56.7,30.09,SSE,158,0.0,0.0,91,0.00,,---,0.00,VWS V14.01,2013-06-29 08:34:00,
2013-06-29 01:39:00,59.4,56.7,30.09,SE,135,0.0,0.0,91,0.00,,---,0.00,VWS V14.01,2013-06-29 08:39:00,
2013-06-29 01:40:00,59.4,56.7,30.09,SE,135,0.0,0.0,91,0.00,,---,0.00,VWS V14.01,2013-06-29 08:40:00,
2013-06-29 01:44:00,59.2,56.6,30.09,SE,135,0.9,0.9,91,0.00,,---,0.00,VWS V14.01,2013-06-29 08:44:00,
2013-06-29 01:49:00,59.2,56.6,30.09,SE,135,0.0,0.9,91,0.00,,---,0.00,VWS V14.01,2013-06-29 08:49:00,
2013-06-29 01:50:00,59.2,56.9,30.09,SE,135,0.9,0.9,92,0.00,,---,0.00,VWS V14.01,2013-06-29 08:50:00,
2013-06-29 01:54:00,59.2,56.9,30.09,SE,135,0.0,0.9,92,0.00,,---,0.00,VWS V14.01,2013-06-29 08:54:00,
2013-06-29 01:59:00,59.2,56.9,30.09,SE,135,0.0,0.9,92,0.00,,---,0.00,VWS V14.01,2013-06-29 08:59:00,
2013-06-29 02:00:00,59.2,56.9,30.09,SE,135,0.0,0.9,92,0.00,,---,0.00,VWS V14.01,2013-06-29 09:00:00,
2013-06-29 02:04:00,59.2,56.9,30.09,SE,135,2.0,2.0,92,0.00,,---,0.00,VWS V14.01,2013-06-29 09:04:00,
2013-06-29 02:09:00,59.0,56.7,30.09,SSE,158,0.0,2.0,92,0.00,,---,0.00,VWS V14.01,2013-06-29 09:09:00,
2013-06-29 02:10:00,59.0,56.7,30.09,SSE,158,0.0,2.0,92,0.00,,---,0.00,VWS V14.01,2013-06-29 09:10:00,
2013-06-29 02:14:00,59.0,56.7,30.12,SSE,158,0.0,0.0,92,0.00,,---,0.00,VWS V14.01,2013-06-29 09:14:00,
2013-06-29 02:20:00,59.0,56.7,30.12,SSE,158,0.0,0.0,92,0.00,,---,0.00,VWS V14.01,2013-06-29 09:20:00,
2013-06-29 02:25:00,59.0,56.7,30.12,SSE,158,0.0,0.0,92,0.00,,---,0.00,VWS V14.01,2013-06-29 09:25:00,
2013-06-29 02:30:00,59.0,56.7,30.12,SE,135,0.0,0.9,92,0.00,,---,0.00,VWS V14.01,2013-06-29 09:30:00,
2013-06-29 02:35:00,59.0,56.7,30.12,SE,135,0.0,0.0,92,0.00,,---,0.00,VWS V14.01,2013-06-29 09:35:00,
2013-06-29 02:40:00,58.8,56.8,30.12,SE,135,0.0,0.0,93,0.00,,---,0.00,VWS V14.01,2013-06-29 09:40:00,
2013-06-29 02:45:00,58.8,56.8,30.12,SE,135,0.0,0.0,93,0.00,,---,0.00,VWS V14.01,2013-06-29 09:45:00,
2013-06-29 02:50:00,58.8,56.8,30.12,SE,135,0.0,0.0,93,0.00,,---,0.00,VWS V14.01,2013-06-29 09:50:00,
2013-06-29 02:55:00,58.8,56.8,30.12,SE,135,0.0,0.0,93,0.00,,---,0.00,VWS V14.01,2013-06-29 09:55:00,
2013-06-29 03:00:00,58.8,56.8,30.12,SE,135,0.0,0.0,93,0.00,,---,0.00,VWS V14.01,2013-06-29 10:00:00,
2013-06-29 03:05:00,58.8,56.8,30.12,SE,135,0.0,0.0,93,0.00,,---,0.00,VWS V14.01,2013-06-29 10:05:00,
2013-06-29 03:10:00,58.8,56.8,30.12,SE,135,0.0,0.0,93,0.00,,---,0.00,VWS V14.01,2013-06-29 10:10:00,
2013-06-29 03:11:00,58.6,56.6,30.12,SE,135,0.0,0.0,93,0.00,,---,0.00,VWS V14.01,2013-06-29 10:11:00,
2013-06-29 03:16:00,58.6,56.6,30.12,SE,135,0.0,0.0,93,0.00,,---,0.00,VWS V14.01,2013-06-29 10:16:00,
2013-06-29 03:20:00,58.5,56.7,30.12,SE,135,0.0,0.0,94,0.00,,---,0.00,VWS V14.01,2013-06-29 10:20:00,
2013-06-29 03:21:00,58.5,56.7,30.12,SE,135,0.0,0.0,94,0.00,,---,0.00,VWS V14.01,2013-06-29 10:21:00,
2013-06-29 03:26:00,58.3,56.6,30.12,ESE,112,0.0,0.0,94,0.00,,---,0.00,VWS V14.01,2013-06-29 10:26:00,
2013-06-29 03:30:00,58.3,56.6,30.12,ESE,112,0.9,0.9,94,0.00,,---,0.00,VWS V14.01,2013-06-29 10:30:00,
2013-06-29 03:31:00,58.1,56.4,30.12,ESE,112,0.0,0.9,94,0.00,,---,0.00,VWS V14.01,2013-06-29 10:31:00,
2013-06-29 03:36:00,58.1,56.4,30.12,ESE,112,0.0,0.9,94,0.00,,---,0.00,VWS V14.01,2013-06-29 10:36:00,
2013-06-29 03:40:00,58.1,56.4,30.12,ESE,112,0.0,0.9,94,0.00,,---,0.00,VWS V14.01,2013-06-29 10:40:00,
2013-06-29 03:41:00,58.3,56.6,30.12,SE,135,0.0,0.0,94,0.00,,---,0.00,VWS V14.01,2013-06-29 10:41:00,
2013-06-29 03:46:00,58.1,56.4,30.12,SE,135,0.0,0.0,94,0.00,,---,0.00,VWS V14.01,2013-06-29 10:46:00,
2013-06-29 03:50:00,58.1,56.4,30.12,SE,135,0.0,0.0,94,0.00,,---,0.00,VWS V14.01,2013-06-29 10:50:00,
2013-06-29 03:51:00,58.1,56.4,30.12,SE,135,0.0,0.0,94,0.00,,---,0.00,VWS V14.01,2013-06-29 10:51:00,
2013-06-29 03:56:00,58.1,56.4,30.12,SE,135,0.0,0.0,94,0.00,,---,0.00,VWS V14.01,2013-06-29 10:56:00,
2013-06-29 04:00:00,57.9,56.2,30.12,SE,135,0.0,0.0,94,0.00,,---,0.00,VWS V14.01,2013-06-29 11:00:00,
2013-06-29 04:02:00,57.9,56.2,30.12,SE,135,0.0,0.0,94,0.00,,---,0.00,VWS V14.01,2013-06-29 11:02:00,
2013-06-29 04:07:00,57.9,56.2,30.12,SE,135,0.0,0.0,94,0.00,,---,0.00,VWS V14.01,2013-06-29 11:07:00,
2013-06-29 04:10:00,57.9,56.2,30.12,SE,135,0.0,0.0,94,0.00,,---,0.00,VWS V14.01,2013-06-29 11:10:00,
2013-06-29 04:12:00,57.6,55.8,30.12,SE,135,0.0,0.0,94,0.00,,---,0.00,VWS V14.01,2013-06-29 11:12:00,
2013-06-29 04:17:00,57.6,55.8,30.12,SE,135,0.0,0.0,94,0.00,,---,0.00,VWS V14.01,2013-06-29 11:17:00,
2013-06-29 04:20:00,57.6,55.8,30.12,SE,135,0.0,0.0,94,0.00,,---,0.00,VWS V14.01,2013-06-29 11:20:00,
2013-06-29 04:22:00,57.6,55.8,30.12,SE,135,0.0,0.0,94,0.00,,---,0.00,VWS V14.01,2013-06-29 11:22:00,
2013-06-29 04:27:00,57.6,55.8,30.12,SE,135,0.0,0.0,94,0.00,,---,0.00,VWS V14.01,2013-06-29 11:27:00,
2013-06-29 04:30:00,57.6,55.8,30.12,SE,135,0.0,0.0,94,0.00,,---,0.00,VWS V14.01,2013-06-29 11:30:00,
2013-06-29 04:32:00,57.6,55.8,30.12,SE,135,0.0,0.0,94,0.00,,---,0.00,VWS V14.01,2013-06-29 11:32:00,
2013-06-29 04:37:00,57.4,55.7,30.12,SE,135,0.0,0.0,94,0.00,,---,0.00,VWS V14.01,2013-06-29 11:37:00,
2013-06-29 04:40:00,57.4,55.7,30.12,SE,135,0.0,0.0,94,0.00,,---,0.00,VWS V14.01,2013-06-29 11:40:00,
2013-06-29 04:42:00,57.4,55.7,30.12,SE,135,0.0,0.0,94,0.00,,---,0.00,VWS V14.01,2013-06-29 11:42:00,
2013-06-29 04:48:00,57.2,55.5,30.12,SE,135,0.0,0.0,94,0.00,,---,0.00,VWS V14.01,2013-06-29 11:48:00,
2013-06-29 04:50:00,57.2,55.5,30.12,SE,135,0.0,1.3,94,0.00,,---,0.00,VWS V14.01,2013-06-29 11:50:00,
2013-06-29 04:53:00,57.2,55.5,30.12,SE,135,0.0,0.0,94,0.00,,---,0.00,VWS V14.01,2013-06-29 11:53:00,
2013-06-29 04:58:00,57.2,55.5,30.12,SE,135,0.0,0.0,94,0.00,,---,0.00,VWS V14.01,2013-06-29 11:58:00,
2013-06-29 05:00:00,57.2,55.5,30.12,SE,135,0.0,0.0,94,0.00,,---,0.00,VWS V14.01,2013-06-29 12:00:00,
2013-06-29 05:03:00,57.2,55.5,30.12,SE,135,0.0,0.0,94,0.00,,---,0.00,VWS V14.01,2013-06-29 12:03:00,
2013-06-29 05:08:00,57.0,55.3,30.12,SE,135,0.0,0.9,94,0.00,,---,0.00,VWS V14.01,2013-06-29 12:08:00,
2013-06-29 05:10:00,57.0,55.3,30.12,SE,135,0.0,0.9,94,0.00,,---,0.00,VWS V14.01,2013-06-29 12:10:00,
2013-06-29 05:13:00,57.0,55.3,30.12,SE,135,0.0,0.0,94,0.00,,---,0.00,VWS V14.01,2013-06-29 12:13:00,
2013-06-29 05:18:00,56.8,55.1,30.12,SE,135,0.0,0.0,94,0.00,,---,0.00,VWS V14.01,2013-06-29 12:18:00,
2013-06-29 05:20:00,56.8,55.1,30.12,SE,135,0.0,0.0,94,0.00,,---,0.00,VWS V14.01,2013-06-29 12:20:00,
2013-06-29 05:23:00,56.8,55.1,30.12,SE,135,0.0,0.0,94,0.00,,---,0.00,VWS V14.01,2013-06-29 12:23:00,
2013-06-29 05:28:00,56.8,55.4,30.12,SE,135,0.0,1.3,95,0.00,,---,0.00,VWS V14.01,2013-06-29 12:28:00,
2013-06-29 05:30:00,56.8,55.4,30.12,SE,135,0.0,1.3,95,0.00,,---,0.00,VWS V14.01,2013-06-29 12:30:00,
2013-06-29 05:34:00,56.7,55.2,30.12,SE,135,0.0,0.0,95,0.00,,---,0.00,VWS V14.01,2013-06-29 12:34:00,
2013-06-29 05:39:00,56.7,55.0,30.12,SE,135,0.0,0.0,94,0.00,,---,0.00,VWS V14.01,2013-06-29 12:39:00,
2013-06-29 05:40:00,56.7,55.0,30.12,SE,135,0.0,0.0,94,0.00,,---,0.00,VWS V14.01,2013-06-29 12:40:00,
2013-06-29 05:44:00,56.5,54.8,30.12,SE,135,0.0,0.0,94,0.00,,---,0.00,VWS V14.01,2013-06-29 12:44:00,
2013-06-29 05:49:00,56.5,54.8,30.12,SE,135,0.0,0.0,94,0.00,,---,0.00,VWS V14.01,2013-06-29 12:49:00,
2013-06-29 05:50:00,56.5,54.8,30.12,SE,135,0.0,0.0,94,0.00,,---,0.00,VWS V14.01,2013-06-29 12:50:00,
2013-06-29 05:54:00,56.5,54.8,30.12,SE,135,0.0,0.0,94,0.00,,---,0.00,VWS V14.01,2013-06-29 12:54:00,
2013-06-29 05:59:00,56.5,55.1,30.09,SE,135,0.0,0.0,95,0.00,,---,0.00,VWS V14.01,2013-06-29 12:59:00,
2013-06-29 06:00:00,56.5,55.1,30.09,SE,135,0.0,0.0,95,0.00,,---,0.00,VWS V14.01,2013-06-29 13:00:00,
2013-06-29 06:04:00,56.5,55.1,30.09,SE,135,0.0,0.0,95,0.00,,---,0.00,VWS V14.01,2013-06-29 13:04:00,
2013-06-29 06:09:00,56.7,55.2,30.09,SE,135,0.0,0.0,95,0.00,,---,0.00,VWS V14.01,2013-06-29 13:09:00,
2013-06-29 06:10:00,56.7,55.2,30.09,SE,135,0.0,0.0,95,0.00,,---,0.00,VWS V14.01,2013-06-29 13:10:00,
2013-06-29 06:14:00,56.8,55.4,30.09,SE,135,2.5,2.5,95,0.00,,---,0.00,VWS V14.01,2013-06-29 13:14:00,
2013-06-29 06:20:00,57.0,55.6,30.09,SE,135,0.0,2.7,95,0.00,,---,0.00,VWS V14.01,2013-06-29 13:20:00,
2013-06-29 06:25:00,57.2,55.8,30.09,SE,135,0.0,1.6,95,0.00,,---,0.00,VWS V14.01,2013-06-29 13:25:00,
2013-06-29 06:30:00,57.4,56.0,30.09,SE,135,0.0,1.6,95,0.00,,---,0.00,VWS V14.01,2013-06-29 13:30:00,
2013-06-29 06:35:00,57.6,56.1,30.09,SE,135,0.0,0.0,95,0.00,,---,0.00,VWS V14.01,2013-06-29 13:35:00,
2013-06-29 06:40:00,57.7,56.3,30.09,SE,135,0.0,0.0,95,0.00,,---,0.00,VWS V14.01,2013-06-29 13:40:00,
2013-06-29 06:45:00,57.9,56.5,30.09,SE,135,0.0,0.0,95,0.00,,---,0.00,VWS V14.01,2013-06-29 13:45:00,
2013-06-29 06:50:00,58.3,56.9,30.09,SE,135,0.9,1.1,95,0.00,,---,0.00,VWS V14.01,2013-06-29 13:50:00,
2013-06-29 06:55:00,58.5,57.0,30.09,SE,135,0.0,0.9,95,0.00,,---,0.00,VWS V14.01,2013-06-29 13:55:00,
2013-06-29 07:00:00,58.6,57.2,30.09,SE,135,0.9,0.9,95,0.00,,---,0.00,VWS V14.01,2013-06-29 14:00:00,
2013-06-29 07:05:00,58.8,57.4,30.09,SE,135,0.0,1.1,95,0.00,,---,0.00,VWS V14.01,2013-06-29 14:05:00,
2013-06-29 07:10:00,59.2,57.8,30.09,SE,135,1.1,2.2,95,0.00,,---,0.00,VWS V14.01,2013-06-29 14:10:00,
2013-06-29 07:11:00,59.2,57.8,30.09,SE,135,0.9,1.1,95,0.00,,---,0.00,VWS V14.01,2013-06-29 14:11:00,
2013-06-29 07:16:00,59.4,57.9,30.09,SE,135,0.0,1.3,95,0.00,,---,0.00,VWS V14.01,2013-06-29 14:16:00,
2013-06-29 07:20:00,59.4,57.9,30.09,SE,135,0.0,1.3,95,0.00,,---,0.00,VWS V14.01,2013-06-29 14:20:00,
2013-06-29 07:21:00,59.4,57.9,30.09,SE,135,0.0,0.0,95,0.00,,---,0.00,VWS V14.01,2013-06-29 14:21:00,
2013-06-29 07:26:00,59.4,57.9,30.09,SE,135,0.0,0.0,95,0.00,,---,0.00,VWS V14.01,2013-06-29 14:26:00,
2013-06-29 07:30:00,59.5,58.1,30.09,SE,135,0.0,0.0,95,0.00,,---,0.00,VWS V14.01,2013-06-29 14:30:00,
2013-06-29 07:31:00,59.5,58.1,30.09,SE,135,0.0,0.0,95,0.00,,---,0.00,VWS V14.01,2013-06-29 14:31:00,
2013-06-29 07:36:00,59.7,58.3,30.09,SE,135,0.0,0.0,95,0.00,,---,0.00,VWS V14.01,2013-06-29 14:36:00,
2013-06-29 07:40:00,59.7,58.3,30.09,SE,135,0.0,1.1,95,0.00,,---,0.00,VWS V14.01,2013-06-29 14:40:00,
2013-06-29 07:41:00,59.7,58.3,30.09,SE,135,0.0,0.0,95,0.00,,---,0.00,VWS V14.01,2013-06-29 14:41:00,
2013-06-29 07:46:00,59.9,58.5,30.06,SSW,202,0.0,0.0,95,0.00,,---,0.00,VWS V14.01,2013-06-29 14:46:00,
2013-06-29 07:50:00,59.9,58.5,30.06,SSW,202,0.0,0.0,95,0.00,,---,0.00,VWS V14.01,2013-06-29 14:50:00,
2013-06-29 07:51:00,60.1,58.7,30.06,SSW,202,0.0,0.0,95,0.00,,---,0.00,VWS V14.01,2013-06-29 14:51:00,
2013-06-29 07:57:00,60.3,58.8,30.06,SE,135,0.0,1.1,95,0.00,,---,0.00,VWS V14.01,2013-06-29 14:57:00,
2013-06-29 08:00:00,60.4,59.0,30.09,SSE,158,0.0,1.1,95,0.00,,---,0.00,VWS V14.01,2013-06-29 15:00:00,
2013-06-29 08:02:00,60.6,59.2,30.09,SSE,158,0.0,0.0,95,0.00,,---,0.00,VWS V14.01,2013-06-29 15:02:00,
2013-06-29 08:07:00,61.0,59.5,30.09,SE,135,2.5,2.5,95,0.00,,---,0.00,VWS V14.01,2013-06-29 15:07:00,
2013-06-29 08:10:00,61.0,59.5,30.09,South,180,0.0,2.5,95,0.00,,---,0.00,VWS V14.01,2013-06-29 15:10:00,
2013-06-29 08:12:00,61.3,59.9,30.09,SSE,158,0.0,0.0,95,0.00,,---,0.00,VWS V14.01,2013-06-29 15:12:00,
2013-06-29 08:17:00,61.5,60.1,30.09,ESE,112,0.0,2.0,95,0.00,,---,0.00,VWS V14.01,2013-06-29 15:17:00,
2013-06-29 08:20:00,61.7,60.3,30.09,SE,135,0.0,2.0,95,0.00,,---,0.00,VWS V14.01,2013-06-29 15:20:00,
2013-06-29 08:22:00,61.9,60.4,30.09,ESE,112,0.0,0.0,95,0.00,,---,0.00,VWS V14.01,2013-06-29 15:22:00,
2013-06-29 08:27:00,62.1,60.3,30.09,SE,135,0.0,0.0,94,0.00,,---,0.00,VWS V14.01,2013-06-29 15:27:00,
2013-06-29 08:30:00,62.2,60.5,30.09,SE,135,0.0,0.0,94,0.00,,---,0.00,VWS V14.01,2013-06-29 15:30:00,
2013-06-29 08:32:00,62.4,60.7,30.09,SE,135,0.0,0.0,94,0.00,,---,0.00,VWS V14.01,2013-06-29 15:32:00,
2013-06-29 08:37:00,63.0,61.2,30.09,NNE,22,0.0,0.0,94,0.00,,---,0.00,VWS V14.01,2013-06-29 15:37:00,
2013-06-29 08:40:00,63.1,61.4,30.09,WNW,292,1.6,4.3,94,0.00,,---,0.00,VWS V14.01,2013-06-29 15:40:00,
2013-06-29 08:43:00,63.1,61.1,30.09,NW,315,1.6,2.0,93,0.00,,---,0.00,VWS V14.01,2013-06-29 15:43:00,
2013-06-29 08:48:00,63.3,61.3,30.09,WNW,292,2.7,2.7,93,0.00,,---,0.00,VWS V14.01,2013-06-29 15:48:00,
2013-06-29 08:50:00,63.5,61.4,30.09,NW,315,1.6,2.7,93,0.00,,---,0.00,VWS V14.01,2013-06-29 15:50:00,
2013-06-29 08:53:00,63.5,61.1,30.09,NW,315,2.9,2.9,92,0.00,,---,0.00,VWS V14.01,2013-06-29 15:53:00,
2013-06-29 08:58:00,63.9,61.5,30.09,WNW,292,2.9,3.1,92,0.00,,---,0.00,VWS V14.01,2013-06-29 15:58:00,
2013-06-29 09:00:00,63.7,61.3,30.09,NNW,338,2.0,3.1,92,0.00,,---,0.00,VWS V14.01,2013-06-29 16:00:00,
2013-06-29 09:03:00,63.9,61.5,30.09,NNW,338,0.0,4.0,92,0.00,,---,0.00,VWS V14.01,2013-06-29 16:03:00,
2013-06-29 09:08:00,63.9,61.2,30.09,WNW,292,2.9,4.0,91,0.00,,---,0.00,VWS V14.01,2013-06-29 16:08:00,
2013-06-29 09:10:00,63.9,61.2,30.09,WNW,292,3.6,4.0,91,0.00,,---,0.00,VWS V14.01,2013-06-29 16:10:00,
2013-06-29 09:13:00,63.9,60.9,30.09,NW,315,1.6,3.6,90,0.00,,---,0.00,VWS V14.01,2013-06-29 16:13:00,
2013-06-29 09:18:00,64.2,60.9,30.09,North,0,1.1,3.6,89,0.00,,---,0.00,VWS V14.01,2013-06-29 16:18:00,
2013-06-29 09:20:00,64.2,60.9,30.09,NW,315,2.2,3.6,89,0.00,,---,0.00,VWS V14.01,2013-06-29 16:20:00,
2013-06-29 09:23:00,64.4,61.1,30.09,WNW,292,2.9,3.1,89,0.00,,---,0.00,VWS V14.01,2013-06-29 16:23:00,
2013-06-29 09:28:00,64.8,61.1,30.09,NNW,338,0.0,3.1,88,0.00,,---,0.00,VWS V14.01,2013-06-29 16:28:00,
2013-06-29 09:30:00,64.9,61.0,30.09,WNW,292,2.9,3.1,87,0.00,,---,0.00,VWS V14.01,2013-06-29 16:30:00,
2013-06-29 09:34:00,65.1,61.2,30.09,NNW,338,1.6,4.3,87,0.00,,---,0.00,VWS V14.01,2013-06-29 16:34:00,
2013-06-29 09:39:00,64.9,59.7,30.09,WNW,292,3.8,4.3,83,0.00,,---,0.00,VWS V14.01,2013-06-29 16:39:00,
2013-06-29 09:40:00,64.9,59.7,30.09,NW,315,5.6,7.8,83,0.00,,---,0.00,VWS V14.01,2013-06-29 16:40:00,
2013-06-29 09:44:00,64.6,57.2,30.09,NNW,338,4.3,6.5,77,0.00,,---,0.00,VWS V14.01,2013-06-29 16:44:00,
2013-06-29 09:49:00,64.8,57.4,30.09,NNW,338,0.0,6.5,77,0.00,,---,0.00,VWS V14.01,2013-06-29 16:49:00,
2013-06-29 09:50:00,65.1,58.1,30.09,NW,315,3.4,6.5,78,0.00,,---,0.00,VWS V14.01,2013-06-29 16:50:00,
2013-06-29 09:54:00,65.3,58.3,30.09,NNW,338,3.8,4.9,78,0.00,,---,0.00,VWS V14.01,2013-06-29 16:54:00,
2013-06-29 09:59:00,65.7,58.3,30.06,NW,315,2.7,4.9,77,0.00,,---,0.00,VWS V14.01,2013-06-29 16:59:00,
2013-06-29 10:00:00,65.7,57.2,30.06,WNW,292,3.8,4.9,74,0.00,,---,0.00,VWS V14.01,2013-06-29 17:00:00,
2013-06-29 10:04:00,66.0,57.5,30.06,NW,315,0.0,3.8,74,0.00,,---,0.00,VWS V14.01,2013-06-29 17:04:00,
2013-06-29 10:09:00,66.2,57.7,30.06,NNW,338,4.0,4.0,74,0.00,,---,0.00,VWS V14.01,2013-06-29 17:09:00,
2013-06-29 10:10:00,66.2,57.7,30.06,NNW,338,0.0,4.0,74,0.00,,---,0.00,VWS V14.01,2013-06-29 17:10:00,
2013-06-29 10:14:00,66.4,57.1,30.06,NNE,22,0.0,2.7,72,0.00,,---,0.00,VWS V14.01,2013-06-29 17:14:00,
2013-06-29 10:19:00,66.7,56.7,30.06,NNW,338,2.0,4.3,70,0.00,,---,0.00,VWS V14.01,2013-06-29 17:19:00,
2013-06-29 10:20:00,66.7,56.7,30.06,WNW,292,2.7,4.3,70,0.00,,---,0.00,VWS V14.01,2013-06-29 17:20:00,
2013-06-29 10:25:00,67.1,56.6,30.06,NW,315,4.3,4.9,69,0.00,,---,0.00,VWS V14.01,2013-06-29 17:25:00,
2013-06-29 10:30:00,67.5,57.0,30.06,WNW,292,2.0,4.9,69,0.00,,---,0.00,VWS V14.01,2013-06-29 17:30:00,
2013-06-29 10:35:00,67.5,57.0,30.06,WNW,292,4.7,4.7,69,0.00,,---,0.00,VWS V14.01,2013-06-29 17:35:00,
2013-06-29 10:40:00,68.0,57.1,30.06,ENE,68,0.0,4.7,68,0.00,,---,0.00,VWS V14.01,2013-06-29 17:40:00,
2013-06-29 10:45:00,68.4,57.0,30.06,WNW,292,1.3,5.6,67,0.00,,---,0.00,VWS V14.01,2013-06-29 17:45:00,
2013-06-29 10:50:00,68.5,56.7,30.06,NNW,338,2.0,5.6,66,0.00,,---,0.00,VWS V14.01,2013-06-29 17:50:00,
2013-06-29 10:55:00,68.7,57.7,30.06,West,270,3.1,3.1,68,0.00,,---,0.00,VWS V14.01,2013-06-29 17:55:00,
2013-06-29 11:00:00,68.7,57.7,30.06,West,270,2.7,3.4,68,0.00,,---,0.00,VWS V14.01,2013-06-29 18:00:00,
2013-06-29 11:05:00,68.7,57.3,30.06,West,270,1.6,3.6,67,0.00,,---,0.00,VWS V14.01,2013-06-29 18:05:00,
2013-06-29 11:10:00,68.7,57.3,30.06,NNW,338,2.2,3.6,67,0.00,,---,0.00,VWS V14.01,2013-06-29 18:10:00,
2013-06-29 11:11:00,69.1,57.3,30.06,NNW,338,3.6,3.6,66,0.00,,---,0.00,VWS V14.01,2013-06-29 18:11:00,
2013-06-29 11:16:00,68.7,56.5,30.06,NNW,338,5.4,5.6,65,0.00,,---,0.00,VWS V14.01,2013-06-29 18:16:00,
2013-06-29 11:20:00,68.2,56.0,30.06,NNW,338,3.8,6.5,65,0.00,,---,0.00,VWS V14.01,2013-06-29 18:20:00,
2013-06-29 11:21:00,68.0,56.2,30.06,NNW,338,3.8,3.8,66,0.00,,---,0.00,VWS V14.01,2013-06-29 18:21:00,
2013-06-29 11:26:00,68.0,56.7,30.06,WNW,292,4.5,4.9,67,0.00,,---,0.00,VWS V14.01,2013-06-29 18:26:00,
2013-06-29 11:30:00,68.2,57.2,30.06,NNW,338,4.0,5.6,68,0.00,,---,0.00,VWS V14.01,2013-06-29 18:30:00,
2013-06-29 11:31:00,68.2,57.2,30.06,NNW,338,5.6,5.6,68,0.00,,---,0.00,VWS V14.01,2013-06-29 18:31:00,
2013-06-29 11:36:00,67.8,57.3,30.06,WNW,292,3.1,6.0,69,0.00,,---,0.00,VWS V14.01,2013-06-29 18:36:00,
2013-06-29 11:40:00,67.6,57.1,30.06,WNW,292,5.4,6.0,69,0.00,,---,0.00,VWS V14.01,2013-06-29 18:40:00,
2013-06-29 11:41:00,67.3,57.2,30.06,WNW,292,3.4,5.4,70,0.00,,---,0.00,VWS V14.01,2013-06-29 18:41:00,
2013-06-29 11:46:00,67.1,57.4,30.06,NNW,338,2.7,6.0,71,0.00,,---,0.00,VWS V14.01,2013-06-29 18:46:00,
2013-06-29 11:50:00,67.1,57.4,30.06,WNW,292,4.7,6.0,71,0.00,,---,0.00,VWS V14.01,2013-06-29 18:50:00,
2013-06-29 11:51:00,67.1,57.4,30.06,NNW,338,3.6,4.9,71,0.00,,---,0.00,VWS V14.01,2013-06-29 18:51:00,
2013-06-29 11:56:00,67.1,58.2,30.06,WNW,292,4.0,5.4,73,0.00,,---,0.00,VWS V14.01,2013-06-29 18:56:00,
2013-06-29 12:00:00,67.1,58.2,30.06,WSW,248,5.4,6.5,73,0.00,,---,0.00,VWS V14.01,2013-06-29 19:00:00,
2013-06-29 12:02:00,67.1,58.2,30.06,WNW,292,4.9,5.8,73,0.00,,---,0.00,VWS V14.01,2013-06-29 19:02:00,
2013-06-29 12:07:00,66.7,58.2,30.06,NNW,338,4.0,5.8,74,0.00,,---,0.00,VWS V14.01,2013-06-29 19:07:00,
2013-06-29 12:10:00,66.9,58.4,30.06,WNW,292,2.5,5.8,74,0.00,,---,0.00,VWS V14.01,2013-06-29 19:10:00,
2013-06-29 12:12:00,67.1,58.9,30.06,NW,315,4.5,4.5,75,0.00,,---,0.00,VWS V14.01,2013-06-29 19:12:00,
2013-06-29 12:17:00,67.3,59.1,30.03,NW,315,1.1,4.5,75,0.00,,---,0.00,VWS V14.01,2013-06-29 19:17:00,
2013-06-29 12:20:00,67.6,59.8,30.03,NNW,338,2.9,4.5,76,0.00,,---,0.00,VWS V14.01,2013-06-29 19:20:00,
2013-06-29 12:22:00,67.6,59.4,30.03,WNW,292,5.4,5.4,75,0.00,,---,0.00,VWS V14.01,2013-06-29 19:22:00,
2013-06-29 12:27:00,68.0,59.8,30.03,NNW,338,5.4,5.4,75,0.00,,---,0.00,VWS V14.01,2013-06-29 19:27:00,
2013-06-29 12:30:00,67.8,59.2,30.03,NNW,338,2.0,5.4,74,0.00,,---,0.00,VWS V14.01,2013-06-29 19:30:00,
2013-06-29 12:32:00,68.0,59.4,30.03,NNW,338,4.7,4.7,74,0.00,,---,0.00,VWS V14.01,2013-06-29 19:32:00,
2013-06-29 12:37:00,68.2,59.6,30.03,North,0,4.3,4.9,74,0.00,,---,0.00,VWS V14.01,2013-06-29 19:37:00,
2013-06-29 12:40:00,68.2,59.2,30.03,NNE,22,4.7,7.2,73,0.00,,---,0.00,VWS V14.01,2013-06-29 19:40:00,
2013-06-29 12:42:00,68.2,59.2,30.03,WNW,292,5.6,5.6,73,0.00,,---,0.00,VWS V14.01,2013-06-29 19:42:00,
2013-06-29 12:48:00,68.4,59.8,30.03,WNW,292,4.3,5.6,74,0.00,,---,0.00,VWS V14.01,2013-06-29 19:48:00,
2013-06-29 12:50:00,68.2,59.2,30.03,NNW,338,4.7,5.6,73,0.00,,---,0.00,VWS V14.01,2013-06-29 19:50:00,
2013-06-29 12:53:00,68.2,59.2,30.03,NNW,338,4.7,5.8,73,0.00,,---,0.00,VWS V14.01,2013-06-29 19:53:00,
2013-06-29 12:58:00,68.0,58.7,30.03,WNW,292,2.5,5.8,72,0.00,,---,0.00,VWS V14.01,2013-06-29 19:58:00,
2013-06-29 13:00:00,68.2,58.8,30.03,WNW,292,3.4,5.8,72,0.00,,---,0.00,VWS V14.01,2013-06-29 20:00:00,
2013-06-29 13:03:00,68.5,59.2,30.03,NW,315,4.0,4.0,72,0.00,,---,0.00,VWS V14.01,2013-06-29 20:03:00,
2013-06-29 13:08:00,68.9,59.5,30.03,NNW,338,3.1,4.3,72,0.00,,---,0.00,VWS V14.01,2013-06-29 20:08:00,
2013-06-29 13:10:00,68.9,59.5,30.03,NE,45,2.9,4.3,72,0.00,,---,0.00,VWS V14.01,2013-06-29 20:10:00,
2013-06-29 13:13:00,68.9,59.1,30.03,West,270,3.6,3.8,71,0.00,,---,0.00,VWS V14.01,2013-06-29 20:13:00,
2013-06-29 13:18:00,69.3,59.5,30.03,NNW,338,2.9,3.8,71,0.00,,---,0.00,VWS V14.01,2013-06-29 20:18:00,
2013-06-29 13:20:00,69.4,59.6,30.03,NW,315,1.6,3.8,71,0.00,,---,0.00,VWS V14.01,2013-06-29 20:20:00,
2013-06-29 13:23:00,69.4,59.6,30.03,WNW,292,2.9,3.6,71,0.00,,---,0.00,VWS V14.01,2013-06-29 20:23:00,
2013-06-29 13:28:00,69.6,59.4,30.03,NW,315,4.3,5.8,70,0.00,,---,0.00,VWS V14.01,2013-06-29 20:28:00,
2013-06-29 13:30:00,69.6,59.4,30.03,NNW,338,4.3,5.8,70,0.00,,---,0.00,VWS V14.01,2013-06-29 20:30:00,
2013-06-29 13:33:00,70.0,59.8,30.03,NNW,338,1.1,4.3,70,0.00,,---,0.00,VWS V14.01,2013-06-29 20:33:00,
2013-06-29 13:39:00,70.0,59.3,30.03,WNW,292,3.1,4.7,69,0.00,,---,0.00,VWS V14.01,2013-06-29 20:39:00,
2013-06-29 13:40:00,70.2,59.5,30.03,WNW,292,5.4,5.4,69,0.00,,---,0.00,VWS V14.01,2013-06-29 20:40:00,
2013-06-29 13:44:00,70.2,58.3,30.03,NNW,338,3.1,6.5,66,0.00,,---,0.00,VWS V14.01,2013-06-29 20:44:00,
2013-06-29 13:49:00,70.5,58.6,30.03,NNW,338,5.6,6.5,66,0.00,,---,0.00,VWS V14.01,2013-06-29 20:49:00,
2013-06-29 13:50:00,70.5,58.6,30.03,NW,315,3.4,6.5,66,0.00,,---,0.00,VWS V14.01,2013-06-29 20:50:00,
2013-06-29 13:54:00,70.5,58.2,30.03,NNW,338,7.4,8.1,65,0.00,,---,0.00,VWS V14.01,2013-06-29 20:54:00,
2013-06-29 13:59:00,69.8,56.2,30.03,WNW,292,8.1,8.1,62,0.00,,---,0.00,VWS V14.01,2013-06-29 20:59:00,
2013-06-29 14:00:00,69.8,56.2,30.03,North,0,8.1,8.1,62,0.00,,---,0.00,VWS V14.01,2013-06-29 21:00:00,
2013-06-29 14:04:00,68.4,54.8,30.03,NNW,338,4.0,9.0,62,0.00,,---,0.00,VWS V14.01,2013-06-29 21:04:00,
2013-06-29 14:09:00,68.4,55.3,30.03,NW,315,5.4,9.0,63,0.00,,---,0.00,VWS V14.01,2013-06-29 21:09:00,
2013-06-29 14:10:00,68.4,55.3,30.03,WNW,292,6.3,9.0,63,0.00,,---,0.00,VWS V14.01,2013-06-29 21:10:00,
2013-06-29 14:14:00,68.9,56.7,30.03,WNW,292,3.8,6.3,65,0.00,,---,0.00,VWS V14.01,2013-06-29 21:14:00,
2013-06-29 14:19:00,68.9,56.2,30.03,WNW,292,5.8,6.3,64,0.00,,---,0.00,VWS V14.01,2013-06-29 21:19:00,
2013-06-29 14:20:00,68.9,56.2,30.03,NW,315,4.3,6.3,64,0.00,,---,0.00,VWS V14.01,2013-06-29 21:20:00,
2013-06-29 14:24:00,69.1,56.8,30.03,NNW,338,5.8,5.8,65,0.00,,---,0.00,VWS V14.01,2013-06-29 21:24:00,
2013-06-29 14:30:00,69.4,56.3,30.03,West,270,5.4,7.6,63,0.00,,---,0.00,VWS V14.01,2013-06-29 21:30:00,
2013-06-29 14:35:00,68.7,55.6,30.03,WNW,292,3.4,6.0,63,0.00,,---,0.00,VWS V14.01,2013-06-29 21:35:00,
2013-06-29 14:40:00,68.0,55.8,30.03,NNW,338,3.6,6.0,65,0.00,,---,0.00,VWS V14.01,2013-06-29 21:40:00,
2013-06-29 14:45:00,67.8,56.1,30.03,WNW,292,3.6,4.0,66,0.00,,---,0.00,VWS V14.01,2013-06-29 21:45:00,
2013-06-29 14:50:00,68.2,56.4,30.03,NW,315,5.4,6.5,66,0.00,,---,0.00,VWS V14.01,2013-06-29 21:50:00,
2013-06-29 14:55:00,68.5,56.7,30.03,WNW,292,3.1,7.4,66,0.00,,---,0.00,VWS V14.01,2013-06-29 21:55:00,
2013-06-29 15:00:00,68.4,56.6,30.03,NW,315,4.9,4.9,66,0.00,,---,0.00,VWS V14.01,2013-06-29 22:00:00,
2013-06-29 15:05:00,67.8,56.5,30.03,NNW,338,11.0,11.0,67,0.00,,---,0.00,VWS V14.01,2013-06-29 22:05:00,
2013-06-29 15:10:00,68.0,57.1,30.03,NW,315,4.3,4.3,68,0.00,,---,0.00,VWS V14.01,2013-06-29 22:10:00,
2013-06-29 15:16:00,68.0,57.1,30.03,NW,315,4.0,6.5,68,0.00,,---,0.00,VWS V14.01,2013-06-29 22:16:00,
2013-06-29 15:20:00,68.5,58.0,30.03,NNW,338,3.8,6.5,69,0.00,,---,0.00,VWS V14.01,2013-06-29 22:20:00,
2013-06-29 15:21:00,68.5,58.0,30.03,NW,315,5.8,5.8,69,0.00,,---,0.00,VWS V14.01,2013-06-29 22:21:00,
2013-06-29 15:26:00,68.2,57.2,30.03,WNW,292,8.1,8.1,68,0.00,,---,0.00,VWS V14.01,2013-06-29 22:26:00,
2013-06-29 15:30:00,68.4,57.4,30.03,WNW,292,7.2,8.1,68,0.00,,---,0.00,VWS V14.01,2013-06-29 22:30:00,
2013-06-29 15:31:00,68.4,57.4,30.03,NNW,338,4.9,7.2,68,0.00,,---,0.00,VWS V14.01,2013-06-29 22:31:00,
2013-06-29 15:36:00,68.4,57.8,30.03,WNW,292,3.6,7.6,69,0.00,,---,0.00,VWS V14.01,2013-06-29 22:36:00,
2013-06-29 15:40:00,68.4,57.4,30.03,WNW,292,7.2,8.7,68,0.00,,---,0.00,VWS V14.01,2013-06-29 22:40:00,
2013-06-29 15:41:00,68.2,56.8,30.03,WNW,292,6.9,7.2,67,0.00,,---,0.00,VWS V14.01,2013-06-29 22:41:00,
2013-06-29 15:46:00,68.5,58.0,30.03,WNW,292,6.3,7.4,69,0.00,,---,0.00,VWS V14.01,2013-06-29 22:46:00,
2013-06-29 15:50:00,68.5,57.6,30.03,WNW,292,6.9,7.4,68,0.00,,---,0.00,VWS V14.01,2013-06-29 22:50:00,
2013-06-29 15:51:00,68.4,57.0,30.03,NW,315,7.8,7.8,67,0.00,,---,0.00,VWS V14.01,2013-06-29 22:51:00,
2013-06-29 15:56:00,68.7,56.9,30.03,NNW,338,5.4,7.8,66,0.00,,---,0.00,VWS V14.01,2013-06-29 22:56:00,
2013-06-29 16:00:00,68.7,56.5,30.03,WNW,292,6.5,7.8,65,0.00,,---,0.00,VWS V14.01,2013-06-29 23:00:00,
2013-06-29 16:01:00,68.9,56.7,30.03,WNW,292,6.5,6.5,65,0.00,,---,0.00,VWS V14.01,2013-06-29 23:01:00,
2013-06-29 16:07:00,69.3,56.1,30.03,NW,315,1.6,7.4,63,0.00,,---,0.00,VWS V14.01,2013-06-29 23:07:00,
2013-06-29 16:10:00,69.3,55.2,30.03,NW,315,4.5,7.4,61,0.00,,---,0.00,VWS V14.01,2013-06-29 23:10:00,
2013-06-29 16:12:00,69.3,55.2,30.03,WNW,292,4.3,7.6,61,0.00,,---,0.00,VWS V14.01,2013-06-29 23:12:00,
2013-06-29 16:17:00,69.4,54.5,30.03,NNW,338,4.7,7.6,59,0.00,,---,0.00,VWS V14.01,2013-06-29 23:17:00,
2013-06-29 16:20:00,69.4,54.5,30.03,NNE,22,7.4,7.6,59,0.00,,---,0.00,VWS V14.01,2013-06-29 23:20:00,
2013-06-29 16:22:00,69.4,55.0,30.03,NNW,338,5.4,7.6,60,0.00,,---,0.00,VWS V14.01,2013-06-29 23:22:00,
2013-06-29 16:27:00,68.9,54.5,30.03,WNW,292,5.6,9.4,60,0.00,,---,0.00,VWS V14.01,2013-06-29 23:27:00,
2013-06-29 16:30:00,68.9,54.9,30.00,NW,315,8.7,9.4,61,0.00,,---,0.00,VWS V14.01,2013-06-29 23:30:00,
2013-06-29 16:32:00,68.7,55.2,30.00,WNW,292,7.2,8.7,62,0.00,,---,0.00,VWS V14.01,2013-06-29 23:32:00,
2013-06-29 16:37:00,68.9,55.8,30.00,NNW,338,5.4,10.5,63,0.00,,---,0.00,VWS V14.01,2013-06-29 23:37:00,
2013-06-29 16:40:00,68.7,56.1,30.00,WNW,292,4.9,10.5,64,0.00,,---,0.00,VWS V14.01,2013-06-29 23:40:00,
2013-06-29 16:42:00,68.9,56.2,30.00,NNW,338,4.7,5.6,64,0.00,,---,0.00,VWS V14.01,2013-06-29 23:42:00,
2013-06-29 16:47:00,68.9,56.7,30.03,WNW,292,4.3,6.5,65,0.00,,---,0.00,VWS V14.01,2013-06-29 23:47:00,
2013-06-29 16:50:00,68.7,56.5,30.03,WNW,292,6.3,6.5,65,0.00,,---,0.00,VWS V14.01,2013-06-29 23:50:00,
2013-06-29 16:52:00,68.7,56.5,30.03,WNW,292,5.8,6.3,65,0.00,,---,0.00,VWS V14.01,2013-06-29 23:52:00,
2013-06-29 16:58:00,68.4,56.6,30.00,West,270,6.3,7.8,66,0.00,,---,0.00,VWS V14.01,2013-06-29 23:58:00,
2013-06-29 17:00:00,68.7,56.9,30.00,WSW,248,4.0,7.8,66,0.00,,---,0.00,VWS V14.01,2013-06-30 00:00:00,
2013-06-29 17:03:00,68.5,56.3,30.00,WNW,292,4.3,7.4,65,0.00,,---,0.00,VWS V14.01,2013-06-30 00:03:00,
2013-06-29 17:08:00,68.5,56.3,30.00,NW,315,4.0,7.8,65,0.00,,---,0.00,VWS V14.01,2013-06-30 00:08:00,
2013-06-29 17:10:00,68.7,56.5,30.00,NNW,338,8.1,9.6,65,0.00,,---,0.00,VWS V14.01,2013-06-30 00:10:00,
2013-06-29 17:13:00,68.5,56.3,30.00,NNW,338,5.4,8.1,65,0.00,,---,0.00,VWS V14.01,2013-06-30 00:13:00,
2013-06-29 17:18:00,68.5,56.3,30.00,NNW,338,3.6,8.1,65,0.00,,---,0.00,VWS V14.01,2013-06-30 00:18:00,
2013-06-29 17:20:00,68.4,56.2,30.00,NNW,338,5.6,8.1,65,0.00,,---,0.00,VWS V14.01,2013-06-30 00:20:00,
2013-06-29 17:23:00,68.7,56.5,30.00,NW,315,6.0,7.4,65,0.00,,---,0.00,VWS V14.01,2013-06-30 00:23:00,
2013-06-29 17:28:00,68.2,56.0,30.00,NW,315,4.0,8.1,65,0.00,,---,0.00,VWS V14.01,2013-06-30 00:28:00,
2013-06-29 17:30:00,68.2,56.0,30.00,WNW,292,3.4,9.8,65,0.00,,---,0.00,VWS V14.01,2013-06-30 00:30:00,
2013-06-29 17:33:00,68.5,56.7,30.00,North,0,6.5,9.4,66,0.00,,---,0.00,VWS V14.01,2013-06-30 00:33:00,
2013-06-29 17:38:00,67.8,56.1,30.00,NNW,338,8.1,9.8,66,0.00,,---,0.00,VWS V14.01,2013-06-30 00:38:00,
2013-06-29 17:40:00,68.0,56.2,30.00,NW,315,5.6,9.8,66,0.00,,---,0.00,VWS V14.01,2013-06-30 00:40:00,
2013-06-29 17:43:00,67.8,56.1,30.00,WNW,292,8.7,8.7,66,0.00,,---,0.00,VWS V14.01,2013-06-30 00:43:00,
2013-06-29 17:49:00,68.2,56.4,30.00,NNW,338,6.5,8.7,66,0.00,,---,0.00,VWS V14.01,2013-06-30 00:49:00,
2013-06-29 17:50:00,68.2,56.8,30.00,North,0,8.7,8.7,67,0.00,,---,0.00,VWS V14.01,2013-06-30 00:50:00,
2013-06-29 17:54:00,68.2,56.8,30.00,WNW,292,6.3,8.7,67,0.00,,---,0.00,VWS V14.01,2013-06-30 00:54:00,
2013-06-29 17:59:00,68.0,56.2,30.00,NW,315,5.4,9.6,66,0.00,,---,0.00,VWS V14.01,2013-06-30 00:59:00,
2013-06-29 18:00:00,68.0,56.2,30.00,North,0,7.2,9.6,66,0.00,,---,0.00,VWS V14.01,2013-06-30 01:00:00,
2013-06-29 18:04:00,68.2,56.4,30.00,WNW,292,5.8,7.2,66,0.00,,---,0.00,VWS V14.01,2013-06-30 01:04:00,
2013-06-29 18:09:00,68.4,56.6,30.00,NW,315,3.6,10.7,66,0.00,,---,0.00,VWS V14.01,2013-06-30 01:09:00,
2013-06-29 18:10:00,68.4,56.6,30.00,WNW,292,4.9,10.7,66,0.00,,---,0.00,VWS V14.01,2013-06-30 01:10:00,
2013-06-29 18:14:00,69.6,57.3,30.00,WNW,292,3.1,6.3,65,0.00,,---,0.00,VWS V14.01,2013-06-30 01:14:00,
2013-06-29 18:19:00,70.5,57.3,30.00,WNW,292,10.3,10.3,63,0.00,,---,0.00,VWS V14.01,2013-06-30 01:19:00,
2013-06-29 18:20:00,70.7,56.6,30.00,NNW,338,4.3,10.3,61,0.00,,---,0.00,VWS V14.01,2013-06-30 01:20:00,
2013-06-29 18:24:00,70.7,56.2,30.00,NNE,22,2.9,10.3,60,0.00,,---,0.00,VWS V14.01,2013-06-30 01:24:00,
2013-06-29 18:29:00,70.7,55.7,30.00,NW,315,4.3,10.3,59,0.00,,---,0.00,VWS V14.01,2013-06-30 01:29:00,
2013-06-29 18:30:00,70.7,55.7,30.00,WNW,292,4.3,10.3,59,0.00,,---,0.00,VWS V14.01,2013-06-30 01:30:00,
2013-06-29 18:34:00,70.7,55.7,30.00,NNW,338,6.0,6.3,59,0.00,,---,0.00,VWS V14.01,2013-06-30 01:34:00,
2013-06-29 18:40:00,70.5,56.0,30.00,WNW,292,2.9,6.3,60,0.00,,---,0.00,VWS V14.01,2013-06-30 01:40:00,
2013-06-29 18:45:00,70.2,56.1,30.00,WNW,292,5.6,6.3,61,0.00,,---,0.00,VWS V14.01,2013-06-30 01:45:00,
2013-06-29 18:50:00,69.6,56.0,30.00,NNW,338,4.0,7.6,62,0.00,,---,0.00,VWS V14.01,2013-06-30 01:50:00,
2013-06-29 18:55:00,69.6,56.0,30.00,NNW,338,6.3,8.5,62,0.00,,---,0.00,VWS V14.01,2013-06-30 01:55:00,
2013-06-29 19:00:00,69.3,56.1,29.97,NW,315,6.0,8.5,63,0.00,,---,0.00,VWS V14.01,2013-06-30 02:00:00,
2013-06-29 19:05:00,69.1,56.4,29.97,NNW,338,3.6,6.0,64,0.00,,---,0.00,VWS V14.01,2013-06-30 02:05:00,
2013-06-29 19:10:00,69.4,57.2,29.97,WNW,292,6.0,7.6,65,0.00,,---,0.00,VWS V14.01,2013-06-30 02:10:00,
2013-06-29 19:15:00,69.6,57.3,29.97,WNW,292,4.9,6.0,65,0.00,,---,0.00,VWS V14.01,2013-06-30 02:15:00,
2013-06-29 19:20:00,70.2,57.4,29.97,NNE,22,3.6,6.0,64,0.00,,---,0.00,VWS V14.01,2013-06-30 02:20:00,
2013-06-29 19:26:00,70.0,56.4,29.97,NNW,338,5.6,7.4,62,0.00,,---,0.00,VWS V14.01,2013-06-30 02:26:00,
2013-06-29 19:30:00,70.3,56.7,29.97,WNW,292,2.7,7.4,62,0.00,,---,0.00,VWS V14.01,2013-06-30 02:30:00,
2013-06-29 19:31:00,70.5,57.3,29.97,WNW,292,2.7,2.7,63,0.00,,---,0.00,VWS V14.01,2013-06-30 02:31:00,
2013-06-29 19:36:00,70.9,56.3,29.97,NW,315,3.8,6.7,60,0.00,,---,0.00,VWS V14.01,2013-06-30 02:36:00,
2013-06-29 19:40:00,71.2,56.7,29.97,WNW,292,4.3,6.7,60,0.00,,---,0.00,VWS V14.01,2013-06-30 02:40:00,
2013-06-29 19:41:00,70.7,55.2,29.97,WSW,248,5.8,5.8,58,0.00,,---,0.00,VWS V14.01,2013-06-30 02:41:00,
2013-06-29 19:46:00,70.7,55.2,29.94,NNW,338,5.4,5.8,58,0.00,,---,0.00,VWS V14.01,2013-06-30 02:46:00,
2013-06-29 19:50:00,70.2,54.7,29.94,NNW,338,6.0,6.0,58,0.00,,---,0.00,VWS V14.01,2013-06-30 02:50:00,
2013-06-29 19:51:00,70.2,54.7,29.94,WNW,292,3.6,6.0,58,0.00,,---,0.00,VWS V14.01,2013-06-30 02:51:00,
2013-06-29 19:56:00,68.7,53.8,29.94,WNW,292,3.4,7.4,59,0.00,,---,0.00,VWS V14.01,2013-06-30 02:56:00,
2013-06-29 20:00:00,68.0,54.1,29.94,NNW,338,4.3,7.4,61,0.00,,---,0.00,VWS V14.01,2013-06-30 03:00:00,
2013-06-29 20:01:00,67.5,54.0,29.94,North,0,7.8,7.8,62,0.00,,---,0.00,VWS V14.01,2013-06-30 03:01:00,
2013-06-29 20:06:00,66.4,54.3,29.94,NW,315,2.5,7.8,65,0.00,,---,0.00,VWS V14.01,2013-06-30 03:06:00,
2013-06-29 20:10:00,66.0,54.8,29.94,WNW,292,5.4,7.8,67,0.00,,---,0.00,VWS V14.01,2013-06-30 03:10:00,
2013-06-29 20:11:00,65.8,55.0,29.94,NNE,22,4.0,5.4,68,0.00,,---,0.00,VWS V14.01,2013-06-30 03:11:00,
2013-06-29 20:17:00,65.3,55.3,29.97,NNW,338,3.8,6.0,70,0.00,,---,0.00,VWS V14.01,2013-06-30 03:17:00,
2013-06-29 20:20:00,65.1,55.5,29.97,WNW,292,3.1,6.0,71,0.00,,---,0.00,VWS V14.01,2013-06-30 03:20:00,
2013-06-29 20:22:00,64.9,55.3,29.97,WNW,292,3.4,3.4,71,0.00,,---,0.00,VWS V14.01,2013-06-30 03:22:00,
2013-06-29 20:27:00,64.8,55.2,29.97,NNW,338,3.6,6.3,71,0.00,,---,0.00,VWS V14.01,2013-06-30 03:27:00,
2013-06-29 20:30:00,64.6,55.4,29.97,WNW,292,3.6,6.3,72,0.00,,---,0.00,VWS V14.01,2013-06-30 03:30:00,
2013-06-29 20:32:00,64.4,55.2,29.97,WNW,292,1.6,3.6,72,0.00,,---,0.00,VWS V14.01,2013-06-30 03:32:00,
2013-06-29 20:37:00,64.0,56.0,29.97,WNW,292,3.4,5.6,75,0.00,,---,0.00,VWS V14.01,2013-06-30 03:37:00,
2013-06-29 20:40:00,63.9,56.2,29.97,WNW,292,5.6,6.0,76,0.00,,---,0.00,VWS V14.01,2013-06-30 03:40:00,
2013-06-29 20:42:00,63.9,56.5,29.97,WNW,292,3.8,5.6,77,0.00,,---,0.00,VWS V14.01,2013-06-30 03:42:00,
2013-06-29 20:47:00,63.5,56.5,29.97,NW,315,3.4,6.3,78,0.00,,---,0.00,VWS V14.01,2013-06-30 03:47:00,
2013-06-29 20:50:00,63.5,56.9,29.97,WNW,292,2.5,6.3,79,0.00,,---,0.00,VWS V14.01,2013-06-30 03:50:00,
2013-06-29 20:52:00,63.5,57.2,29.97,NW,315,3.8,3.8,80,0.00,,---,0.00,VWS V14.01,2013-06-30 03:52:00,
2013-06-29 20:57:00,63.3,57.4,29.97,NW,315,2.0,4.0,81,0.00,,---,0.00,VWS V14.01,2013-06-30 03:57:00,
2013-06-29 21:00:00,63.1,57.2,29.97,NNW,338,1.6,4.0,81,0.00,,---,0.00,VWS V14.01,2013-06-30 04:00:00,
2013-06-29 21:01:00,63.1,57.2,29.97,NNE,22,2.9,2.9,81,0.00,,---,0.00,VWS V14.01,2013-06-30 04:01:00,
2013-06-29 21:02:00,63.1,57.2,29.97,NNW,338,3.1,3.1,81,0.00,,---,0.00,VWS V14.01,2013-06-30 04:02:00,
2013-06-29 21:03:00,63.1,57.2,29.97,NNW,338,2.9,3.1,81,0.00,,---,0.00,VWS V14.01,2013-06-30 04:03:00,
2013-06-29 21:04:00,63.1,57.2,29.97,NNW,338,2.9,3.1,81,0.00,,---,0.00,VWS V14.01,2013-06-30 04:04:00,
2013-06-29 21:09:00,63.0,57.0,29.97,North,0,3.4,3.4,81,0.00,,---,0.00,VWS V14.01,2013-06-30 04:09:00,
2013-06-29 21:10:00,63.0,57.4,29.97,NNW,338,4.0,4.0,82,0.00,,---,0.00,VWS V14.01,2013-06-30 04:10:00,
2013-06-29 21:14:00,62.8,57.2,29.97,NNW,338,2.0,4.0,82,0.00,,---,0.00,VWS V14.01,2013-06-30 04:14:00,
2013-06-29 21:19:00,62.6,57.4,29.97,NNW,338,1.6,4.0,83,0.00,,---,0.00,VWS V14.01,2013-06-30 04:19:00,
2013-06-29 21:20:00,62.6,57.4,29.97,NNW,338,1.6,4.0,83,0.00,,---,0.00,VWS V14.01,2013-06-30 04:20:00,
2013-06-29 21:24:00,62.6,57.7,29.97,WNW,292,2.2,3.8,84,0.00,,---,0.00,VWS V14.01,2013-06-30 04:24:00,
2013-06-29 21:29:00,62.4,57.9,29.97,WNW,292,2.0,3.8,85,0.00,,---,0.00,VWS V14.01,2013-06-30 04:29:00,
2013-06-29 21:30:00,62.4,57.9,29.97,WNW,292,1.1,3.8,85,0.00,,---,0.00,VWS V14.01,2013-06-30 04:30:00,
2013-06-29 21:35:00,62.4,58.2,29.97,NNW,338,1.6,2.5,86,0.00,,---,0.00,VWS V14.01,2013-06-30 04:35:00,
2013-06-29 21:40:00,62.2,58.0,29.97,WNW,292,0.0,3.6,86,0.00,,---,0.00,VWS V14.01,2013-06-30 04:40:00,
2013-06-29 21:45:00,62.2,58.3,29.97,WNW,292,2.5,2.7,87,0.00,,---,0.00,VWS V14.01,2013-06-30 04:45:00,
2013-06-29 21:50:00,62.1,58.5,29.97,NW,315,0.0,2.7,88,0.00,,---,0.00,VWS V14.01,2013-06-30 04:50:00,
2013-06-29 21:55:00,62.2,58.7,29.97,WNW,292,0.0,0.0,88,0.00,,---,0.00,VWS V14.01,2013-06-30 04:55:00,
2013-06-29 22:00:00,62.1,58.2,29.97,NW,315,0.0,0.0,87,0.00,,---,0.00,VWS V14.01,2013-06-30 05:00:00,
2013-06-29 22:05:00,61.9,58.0,29.97,NNW,338,0.0,2.2,87,0.00,,---,0.00,VWS V14.01,2013-06-30 05:05:00,
2013-06-29 22:10:00,61.9,58.0,29.97,WNW,292,2.5,2.5,87,0.00,,---,0.00,VWS V14.01,2013-06-30 05:10:00,
2013-06-29 22:15:00,61.9,58.3,30.00,WNW,292,0.0,2.7,88,0.00,,---,0.00,VWS V14.01,2013-06-30 05:15:00,
2013-06-29 22:20:00,61.7,58.4,30.00,NW,315,1.1,1.6,89,0.00,,---,0.00,VWS V14.01,2013-06-30 05:20:00,
2013-06-29 22:26:00,61.7,59.0,30.00,NW,315,0.0,2.9,91,0.00,,---,0.00,VWS V14.01,2013-06-30 05:26:00,
2013-06-29 22:30:00,61.7,59.4,30.00,NNW,338,3.4,3.4,92,0.00,,---,0.00,VWS V14.01,2013-06-30 05:30:00,
2013-06-29 22:31:00,61.5,59.5,30.00,NNW,338,3.4,3.4,93,0.00,,---,0.00,VWS V14.01,2013-06-30 05:31:00,
2013-06-29 22:36:00,61.5,59.5,30.00,NNW,338,2.7,3.4,93,0.00,,---,0.00,VWS V14.01,2013-06-30 05:36:00,
2013-06-29 22:40:00,61.5,59.8,30.00,NNW,338,2.5,3.4,94,0.00,,---,0.00,VWS V14.01,2013-06-30 05:40:00,
2013-06-29 22:41:00,61.5,59.8,30.00,WNW,292,3.6,3.6,94,0.00,,---,0.00,VWS V14.01,2013-06-30 05:41:00,
2013-06-29 22:46:00,61.3,59.6,30.00,NNW,338,0.0,3.6,94,0.00,,---,0.00,VWS V14.01,2013-06-30 05:46:00,
2013-06-29 22:50:00,61.3,59.3,30.00,NW,315,3.1,3.6,93,0.00,,---,0.00,VWS V14.01,2013-06-30 05:50:00,
2013-06-29 22:51:00,61.3,59.3,30.00,WNW,292,3.1,3.1,93,0.00,,---,0.00,VWS V14.01,2013-06-30 05:51:00,
2013-06-29 22:56:00,61.2,59.7,30.00,NNW,338,1.6,3.1,95,0.00,,---,0.00,VWS V14.01,2013-06-30 05:56:00,
2013-06-29 23:00:00,61.3,59.9,30.00,WNW,292,0.9,3.1,95,0.00,,---,0.00,VWS V14.01,2013-06-30 06:00:00,
2013-06-29 23:01:00,61.3,59.9,30.00,NNW,338,3.8,3.8,95,0.00,,---,0.00,VWS V14.01,2013-06-30 06:01:00,
2013-06-29 23:06:00,60.8,59.7,30.00,WNW,292,0.9,5.4,96,0.00,,---,0.00,VWS V14.01,2013-06-30 06:06:00,
2013-06-29 23:10:00,60.8,59.7,30.00,WNW,292,0.0,5.4,96,0.00,,---,0.00,VWS V14.01,2013-06-30 06:10:00,
2013-06-29 23:12:00,60.8,59.7,30.00,WNW,292,1.3,1.3,96,0.00,,---,0.00,VWS V14.01,2013-06-30 06:12:00,
2013-06-29 23:17:00,61.0,59.8,30.00,WNW,292,0.0,1.6,96,0.00,,---,0.00,VWS V14.01,2013-06-30 06:17:00,
2013-06-29 23:20:00,61.0,59.8,30.00,NNW,338,0.0,1.6,96,0.00,,---,0.00,VWS V14.01,2013-06-30 06:20:00,
2013-06-29 23:22:00,61.0,59.8,30.00,West,270,2.7,2.7,96,0.00,,---,0.00,VWS V14.01,2013-06-30 06:22:00,
2013-06-29 23:27:00,61.0,59.8,30.00,WNW,292,0.0,2.7,96,0.00,,---,0.00,VWS V14.01,2013-06-30 06:27:00,
2013-06-29 23:30:00,61.0,59.5,30.00,WNW,292,0.0,2.7,95,0.00,,---,0.00,VWS V14.01,2013-06-30 06:30:00,
2013-06-29 23:32:00,61.0,59.5,30.00,West,270,0.0,0.0,95,0.00,,---,0.00,VWS V14.01,2013-06-30 06:32:00,
2013-06-29 23:37:00,60.8,59.4,30.00,NNW,338,0.0,1.3,95,0.00,,---,0.00,VWS V14.01,2013-06-30 06:37:00,
2013-06-29 23:40:00,60.8,59.4,30.00,NNW,338,0.0,1.3,95,0.00,,---,0.00,VWS V14.01,2013-06-30 06:40:00,
2013-06-29 23:42:00,60.8,59.4,30.00,WNW,292,0.0,0.0,95,0.00,,---,0.00,VWS V14.01,2013-06-30 06:42:00,
2013-06-29 23:47:00,61.0,59.8,30.00,NW,315,0.0,0.9,96,0.00,,---,0.00,VWS V14.01,2013-06-30 06:47:00,
2013-06-29 23:50:00,61.0,59.8,30.00,NW,315,0.0,0.9,96,0.00,,---,0.00,VWS V14.01,2013-06-30 06:50:00,
2013-06-29 23:52:00,61.0,59.8,30.00,WNW,292,0.0,1.1,96,0.00,,---,0.00,VWS V14.01,2013-06-30 06:52:00,
2013-06-29 23:57:00,61.0,59.8,30.00,NNW,338,0.9,3.6,96,0.00,,---,0.00,VWS V14.01,2013-06-30 06:57:00,